AirNav   Bose Proflight Series 2 Wireless Aviation Headset
 
 1356 users online  

KAMT Alexander Salamon Airport
West Union, Ohio, USA

GOING TO WEST UNION?


FAA INFORMATION EFFECTIVE 07 NOVEMBER 2019

Location

FAA Identifier: AMT
Lat/Long: 38-51-06.0210N 083-33-57.6260W
38-51.100350N 083-33.960433W
38.8516725,-83.5660072
(estimated)
Elevation: 896 ft. / 273.1 m (surveyed)
Variation: 04W (1985)
From city: 4 miles NW of WEST UNION, OH
Time zone: UTC -5 (UTC -4 during Daylight Saving Time)
Zip code: 45693

Airport Operations

Airport use: Open to the public
Activation date: 03/1972
Control tower: no
ARTCC: INDIANAPOLIS CENTER
FSS: DAYTON FLIGHT SERVICE STATION
NOTAMs facility: DAY (NOTAM-D service available)
Attendance: UNATTND
Wind indicator: lighted
Segmented circle: no
Lights: ACTVT REILS RWYS 05/23; PAPI RWY 23; MIRL RWY 05/23 - CTAF.
Beacon: white-green (lighted land airport)
Operates sunset to sunrise.

Airport Communications

CTAF/UNICOM: 122.8
  • APCH/DEP SVC PRVDD BY INDIANAPOLIS ARTCC ON FREQS 135.575/290.5 (PORTSMOUTH RCAG).

Nearby radio navigation aids

VOR radial/distance  VOR name  Freq  Var
YRKr299/30.2YORK VORTAC112.8005W
MXQr166/36.4MIDWEST VOR/DME112.9004W
FLMr075/36.9FALMOUTH VOR/DME117.0004W

 
NDB name  Hdg/Dist  Freq  Var  ID
WEST UNIONat field35904WAMT .- -- -
SPORTYS118/33.224504WPWF .--. .-- ..-.
WAVERLY243/35.138506WEOP . --- .--.

Airport Services

Parking: tiedowns

Runway Information

Runway 5/23

Dimensions: 3558 x 65 ft. / 1084 x 20 m
Surface: asphalt, in good condition
Runway edge lights: medium intensity
RUNWAY 5  RUNWAY 23
Latitude: 38-50.893600N38-51.307073N
Longitude: 083-34.226117W083-33.694735W
Elevation: 882.9 ft.896.0 ft.
Traffic pattern: leftleft
Runway heading: 049 magnetic, 045 true229 magnetic, 225 true
Markings: nonprecision, in good conditionnonprecision, in good condition
Visual slope indicator: 4-light PAPI on left (3.30 degrees glide path)
Runway end identifier lights: yesyes
Touchdown point: yes, no lightsyes, no lights
Obstructions: 10 ft. brush, 201 ft. from runway, 170 ft. right of centerline
RWY 05 +4 FT FENCE 0 FT TO 200 FT FM, 195 FT B, +0-TO-10 FT BRUSH, 0 FT TO 200 FT FM, 125 FT R.
10 ft. brush, 201 ft. from runway, 200 ft. left of centerline
RWY 23 +5 FT FENCE 0 FT TO 200 FT FM, 200 FT L, +0-TO-10 FT BRUSH 0 FT TO 200 FT FM, 200 FT L.

Airport Ownership and Management from official FAA records

Ownership: Publicly-owned
Owner: ADAMS CO ARPT AUTH
ADAMS CO. COURT HOUSE
WEST UNION, OH 45693
Phone 937-544-3286
Manager: RICK SETTY
3389 CROSS ROAD
WINCHESTER, OH 45697
Phone (937) 217-8742
ADDNL CTC: AMT_APT_MGR@ADAMSCOUNTYOH.GOV (937) 544-3286

Airport Operational Statistics

Aircraft based on the field: 13
Single engine airplanes: 12
Ultralights: 1
    
Aircraft operations: avg 100/week *
58% local general aviation
38% transient general aviation
4% air taxi
<1% military
* for 12-month period ending 18 June 2018

Additional Remarks

A30A-23 ADNL OBST, +65 TREES 1450 FT FM 180L 19:1.
TWY MKD W/REFLECTORS
DEER, BIRDS & OTHER WILDLIFE ON & IVOF ARPT.
FOR CD CTC INDIANAPOLIS ARTCC AT 317-247-2411.

Instrument Procedures

NOTE: All procedures below are presented as PDF files. If you need a reader for these files, you should download the free Adobe Reader.

NOT FOR NAVIGATION. Please procure official charts for flight.
FAA instrument procedures published for use from 07 November 2019 at 0901Z to 05 December 2019 at 0900Z.

 
IAPs - Instrument Approach Procedures
RNAV (GPS) RWY 05 **CHANGED**   download (173KB)
RNAV (GPS) RWY 23 **CHANGED**   download (181KB)
NOTE: Special Take-Off Minimums/Departure Procedures apply   download (164KB)

Other nearby airports with instrument procedures:

KGEO - Brown County Airport (15 nm W)
KHOC - Highland County Airport (20 nm N)
KFGX - Fleming-Mason Airport (20 nm SW)
I69 - Clermont County Airport (33 nm NW)
KPMH - Greater Portsmouth Regional Airport (34 nm E)
 
Loc | Ops | Rwys | IFR | FBO | Links
Com | Nav | Svcs | Stats | Notes
Area around KAMT (Alexander Salamon Airport)
 
Road maps at: MapQuest Bing Google
 
Aerial photo
WARNING: Photo may not be current or correct
Aerial photo of KAMT (Alexander Salamon Airport)
Photo by David Dietz
Photo taken 09-Jul-2009
looking northeast.

Do you have a better or more recent aerial photo of Alexander Salamon Airport that you would like to share? If so, please send us your photo.

 
Sectional chart

 
Airport distance calculator
Flying to Alexander Salamon Airport? Find the distance to fly.

From to KAMT

Sunrise and sunset
Times for 18-Nov-2019
 Local
(UTC-5)
 Zulu
(UTC)
Morning civil twilight06:5311:53
Sunrise07:2112:21
Sunset17:1822:18
Evening civil twilight17:4622:46

Current date and time
Zulu (UTC)  18-Nov-2019 21:28:32
Local (UTC-5)  18-Nov-2019 16:28:32
 
METAR
KFGX 
20nm SW 
182115Z AUTO 29003KT 10SM BKN033 OVC039 07/02 A2977 RMK AO2 T00720015
KI69 
33nm NW 
182115Z AUTO 26007KT 10SM OVC025 07/02 A2977 RMK AO2 T00670018
KPMH 
34nm E 
182118Z AUTO 00000KT 10SM BKN070 BKN080 OVC090 06/04 A2977 RMK AO2 T00550042
KILN 
37nm N 
182054Z AUTO 22005KT 8SM SCT038 OVC055 07/01 A2973 RMK AO2 SLP086 T00670006 56006
KSYM 
38nm S 
182115Z AUTO 31005KT 10SM OVC050 09/01 A2976 RMK AO2
TAF
KILN 
37nm N 
181724Z 1818/1918 26007KT P6SM OVC040 FM182300 26005KT P6SM OVC015 FM190200 27005KT 5SM -DZ BR OVC012 FM190500 26005KT 5SM -DZ BR OVC008 FM191400 25005KT P6SM OVC015
KSYM 
38nm S 
181739Z 1818/1918 VRB05KT P6SM SCT040 SCT070 FM182200 VRB04KT P6SM BKN025 FM190400 VRB03KT P6SM BKN020 FM191400 VRB03KT P6SM SCT020 BKN050
KLUK 
42nm W 
181724Z 1818/1918 22005KT P6SM OVC050 FM182000 26005KT P6SM OVC018 FM190400 26004KT 4SM -DZ BR OVC009 FM191300 23005KT 5SM -DZ BR OVC013 FM191500 21006KT P6SM OVC018
NOTAMs
Click for the latest NOTAMs
NOTAMs are issued by the DoD/FAA and will open in a separate window not controlled by AirNav.

 

 
 

Would you like to see your business listed on this page?

 If your business provides an interesting product or service to pilots, flight crews, aircraft, or users of the Alexander Salamon Airport, you should consider listing it here.  To start the listing process, click on the button below
 
Add a business
 

Other Pages about Alexander Salamon Airport

www.adamscountyoh.com/airport.asp
 
Update a link
 
Copyright © AirNav, LLC. All rights reserved. Privacy Policy  Contact